Year,Month,Day,Hour,Minute,Value (Times are PST for temperature in C)
2016,03,18,00,00,7.90
2016,03,18,00,01,7.80
2016,03,18,00,02,7.80
2016,03,18,00,03,7.80
2016,03,18,00,04,7.80
2016,03,18,00,05,7.90
2016,03,18,00,06,7.90
2016,03,18,00,07,7.90
2016,03,18,00,09,7.80
2016,03,18,00,10,7.80
2016,03,18,00,12,7.90
2016,03,18,00,13,7.90
2016,03,18,00,14,7.90
2016,03,18,00,16,7.90
2016,03,18,00,17,7.90
2016,03,18,00,18,7.90
2016,03,18,00,19,7.90
2016,03,18,00,21,8.00
2016,03,18,00,22,8.00
2016,03,18,00,23,8.00
2016,03,18,00,24,8.10
2016,03,18,00,26,8.20
2016,03,18,00,27,8.20
2016,03,18,00,28,8.20
2016,03,18,00,29,8.20
2016,03,18,00,31,8.20
2016,03,18,00,32,8.20
2016,03,18,00,33,8.20
2016,03,18,00,34,8.20
2016,03,18,00,36,8.20
2016,03,18,00,37,8.10
2016,03,18,00,38,8.10
2016,03,18,00,39,8.10
2016,03,18,00,41,8.00
2016,03,18,00,42,7.90
2016,03,18,00,43,7.90
2016,03,18,00,44,7.80
2016,03,18,00,46,7.70
2016,03,18,00,47,7.60
2016,03,18,00,48,7.60
2016,03,18,00,49,7.50
2016,03,18,00,51,7.30
2016,03,18,00,52,7.30
2016,03,18,00,53,7.30
2016,03,18,00,54,7.20
2016,03,18,00,56,7.00
2016,03,18,00,57,6.90
2016,03,18,00,58,6.80
2016,03,18,00,59,6.80
2016,03,18,01,01,6.70
2016,03,18,01,02,6.70
2016,03,18,01,03,6.60
2016,03,18,01,04,6.60
2016,03,18,01,06,6.40
2016,03,18,01,07,6.40
2016,03,18,01,08,6.40
2016,03,18,01,09,6.40
2016,03,18,01,11,6.30
2016,03,18,01,12,6.30
2016,03,18,01,13,6.30
2016,03,18,01,14,6.30
2016,03,18,01,16,6.40
2016,03,18,01,17,6.40
2016,03,18,01,18,6.40
2016,03,18,01,19,6.60
2016,03,18,01,21,6.60
2016,03,18,01,22,6.70
2016,03,18,01,23,6.80
2016,03,18,01,24,6.80
2016,03,18,01,25,6.80
2016,03,18,01,26,6.90
2016,03,18,01,27,7.00
2016,03,18,01,28,7.00
2016,03,18,01,29,7.10
2016,03,18,01,31,7.20
2016,03,18,01,32,7.30
2016,03,18,01,33,7.30
2016,03,18,01,34,7.30
2016,03,18,01,36,7.30
2016,03,18,01,37,7.40
2016,03,18,01,38,7.40
2016,03,18,01,39,7.40
2016,03,18,01,40,7.50
2016,03,18,01,41,7.50
2016,03,18,01,42,7.50
2016,03,18,01,43,7.50
2016,03,18,01,44,7.60
2016,03,18,01,45,7.60
2016,03,18,01,46,7.60
2016,03,18,01,47,7.60
2016,03,18,01,48,7.60
2016,03,18,01,49,7.70
2016,03,18,01,50,7.70
2016,03,18,01,51,7.70
2016,03,18,01,52,7.80
2016,03,18,01,53,7.80
2016,03,18,01,54,7.80
2016,03,18,01,55,7.80
2016,03,18,01,56,7.80
2016,03,18,01,57,7.80
2016,03,18,01,58,7.70
2016,03,18,01,59,7.70
2016,03,18,02,00,7.70
2016,03,18,02,01,7.70
2016,03,18,02,02,7.70
2016,03,18,02,03,7.70
2016,03,18,02,04,7.70
2016,03,18,02,05,7.70
2016,03,18,02,06,7.70
2016,03,18,02,07,7.70
2016,03,18,02,08,7.70
2016,03,18,02,09,7.70
2016,03,18,02,10,7.70
2016,03,18,02,11,7.70
2016,03,18,02,12,7.70
2016,03,18,02,13,7.70
2016,03,18,02,14,7.70
2016,03,18,02,15,7.70
2016,03,18,02,16,7.70
2016,03,18,02,17,7.70
2016,03,18,02,18,7.70
2016,03,18,02,19,7.70
2016,03,18,02,20,7.80
2016,03,18,02,21,7.80
2016,03,18,02,22,7.80
2016,03,18,02,23,7.80
2016,03,18,02,24,7.80
2016,03,18,02,25,7.80
2016,03,18,02,26,7.80
2016,03,18,02,27,7.80
2016,03,18,02,28,7.80
2016,03,18,02,29,7.70
2016,03,18,02,30,7.70
2016,03,18,02,31,7.70
2016,03,18,02,32,7.70
2016,03,18,02,33,7.70
2016,03,18,02,34,7.70
2016,03,18,02,35,7.70
2016,03,18,02,36,7.70
2016,03,18,02,37,7.70
2016,03,18,02,38,7.70
2016,03,18,02,39,7.70
2016,03,18,02,40,7.80
2016,03,18,02,41,7.80
2016,03,18,02,42,7.80
2016,03,18,02,43,7.80
2016,03,18,02,44,7.80
2016,03,18,02,45,7.80
2016,03,18,02,46,7.80
2016,03,18,02,47,7.80
2016,03,18,02,48,7.80
2016,03,18,02,49,7.80
2016,03,18,02,50,7.80
2016,03,18,02,51,7.80
2016,03,18,02,52,7.80
2016,03,18,02,53,7.80
2016,03,18,02,54,7.80
2016,03,18,02,55,7.80
2016,03,18,02,57,7.80
2016,03,18,02,58,7.80
2016,03,18,02,59,7.90
2016,03,18,03,01,7.90
2016,03,18,03,02,7.80
2016,03,18,03,03,7.80
2016,03,18,03,04,7.80
2016,03,18,03,06,7.80
2016,03,18,03,07,7.90
2016,03,18,03,08,7.90
2016,03,18,03,09,7.90
2016,03,18,03,11,7.90
2016,03,18,03,12,7.90
2016,03,18,03,13,7.90
2016,03,18,03,14,7.90
2016,03,18,03,16,7.90
2016,03,18,03,17,7.90
2016,03,18,03,18,7.90
2016,03,18,03,19,7.90
2016,03,18,03,21,7.90
2016,03,18,03,22,7.90
2016,03,18,03,23,7.90
2016,03,18,03,24,7.90
2016,03,18,03,26,8.00
2016,03,18,03,27,8.00
2016,03,18,03,28,8.00
2016,03,18,03,29,8.00
2016,03,18,03,31,8.00
2016,03,18,03,32,8.00
2016,03,18,03,33,8.00
2016,03,18,03,34,8.00
2016,03,18,03,36,8.00
2016,03,18,03,37,8.00
2016,03,18,03,38,8.00
2016,03,18,03,39,8.10
2016,03,18,03,41,8.10
2016,03,18,03,42,8.10
2016,03,18,03,43,8.10
2016,03,18,03,44,8.00
2016,03,18,03,46,8.10
2016,03,18,03,47,8.10
2016,03,18,03,48,8.10
2016,03,18,03,49,8.10
2016,03,18,03,51,8.10
2016,03,18,03,52,8.10
2016,03,18,03,53,8.10
2016,03,18,03,54,8.00
2016,03,18,03,56,8.00
2016,03,18,03,57,8.00
2016,03,18,03,58,8.00
2016,03,18,03,59,8.00
2016,03,18,04,01,8.00
2016,03,18,04,02,7.90
2016,03,18,04,03,7.90
2016,03,18,04,04,7.90
2016,03,18,04,06,7.90
2016,03,18,04,07,7.90
2016,03,18,04,08,7.90
2016,03,18,04,09,7.90
2016,03,18,04,11,7.90
2016,03,18,04,12,7.90
2016,03,18,04,13,7.90
2016,03,18,04,14,7.90
2016,03,18,04,15,7.90
2016,03,18,04,16,7.90
2016,03,18,04,17,7.90
2016,03,18,04,29,8.00
2016,03,18,04,31,8.00
2016,03,18,04,32,8.00
2016,03,18,04,33,8.00
2016,03,18,04,34,8.00
2016,03,18,04,36,8.00
2016,03,18,04,37,8.00
2016,03,18,04,38,8.00
2016,03,18,04,39,8.00
2016,03,18,04,41,8.00
2016,03,18,04,42,8.00
2016,03,18,04,43,8.00
2016,03,18,04,44,8.00
2016,03,18,04,46,8.00
2016,03,18,04,47,8.00
2016,03,18,04,48,8.00
2016,03,18,04,49,8.00
2016,03,18,04,51,8.00
2016,03,18,04,52,7.90
2016,03,18,04,53,7.90
2016,03,18,04,54,8.00
2016,03,18,04,56,8.00
2016,03,18,04,57,8.00
2016,03,18,04,58,8.00
2016,03,18,04,59,8.00
2016,03,18,05,01,8.00
2016,03,18,05,02,8.00
2016,03,18,05,03,8.00
2016,03,18,05,04,8.00
2016,03,18,05,06,8.00
2016,03,18,05,07,8.00
2016,03,18,05,08,8.00
2016,03,18,05,09,8.10
2016,03,18,05,11,8.10
2016,03,18,05,12,8.10
2016,03,18,05,13,8.10
2016,03,18,05,14,8.10
2016,03,18,05,16,8.10
2016,03,18,05,17,8.10
2016,03,18,05,18,8.10
2016,03,18,05,19,8.10
2016,03,18,05,21,8.20
2016,03,18,05,22,8.20
2016,03,18,05,23,8.20
2016,03,18,05,24,8.20
2016,03,18,05,26,8.20
2016,03,18,05,27,8.20
2016,03,18,05,28,8.20
2016,03,18,05,29,8.20
2016,03,18,05,31,8.20
2016,03,18,05,32,8.20
2016,03,18,05,33,8.20
2016,03,18,05,34,8.20
2016,03,18,05,36,8.20
2016,03,18,05,37,8.20
2016,03,18,05,38,8.20
2016,03,18,05,39,8.20
2016,03,18,06,29,8.20
2016,03,18,06,30,8.20
2016,03,18,06,31,8.20
2016,03,18,06,32,8.20
2016,03,18,06,33,8.20
2016,03,18,06,34,8.20
2016,03,18,06,35,8.20
2016,03,18,06,37,8.20
2016,03,18,06,38,8.20
2016,03,18,06,39,8.20
2016,03,18,06,41,8.10
2016,03,18,06,42,8.10
2016,03,18,06,43,8.10
2016,03,18,06,44,8.10
2016,03,18,06,46,8.10
2016,03,18,06,47,8.10
2016,03,18,06,48,8.10
2016,03,18,06,49,8.10
2016,03,18,06,51,8.10
2016,03,18,06,52,8.10
2016,03,18,06,53,8.10
2016,03,18,06,54,8.10
2016,03,18,06,56,8.20
2016,03,18,06,57,8.20
2016,03,18,06,58,8.20
2016,03,18,06,59,8.20
2016,03,18,07,01,8.20
2016,03,18,07,02,8.20
2016,03,18,07,03,8.20
2016,03,18,07,04,8.20
2016,03,18,07,06,8.20
2016,03,18,07,07,8.20
2016,03,18,07,08,8.20
2016,03,18,07,09,8.20
2016,03,18,07,11,8.20
2016,03,18,07,12,8.30
2016,03,18,07,13,8.30
2016,03,18,07,14,8.30
2016,03,18,07,16,8.30
2016,03,18,07,17,8.30
2016,03,18,07,18,8.30
2016,03,18,07,19,8.30
2016,03,18,07,21,8.40
2016,03,18,07,22,8.40
2016,03,18,07,23,8.40
2016,03,18,07,24,8.40
2016,03,18,07,26,8.40
2016,03,18,07,27,8.40
2016,03,18,07,28,8.40
2016,03,18,07,29,8.50
2016,03,18,07,31,8.50
2016,03,18,07,32,8.60
2016,03,18,07,33,8.60
2016,03,18,07,34,8.60
2016,03,18,07,36,8.60
2016,03,18,07,37,8.60
2016,03,18,07,38,8.60
2016,03,18,07,39,8.70
2016,03,18,07,40,8.70
2016,03,18,07,41,8.70
2016,03,18,07,42,8.70
2016,03,18,07,43,8.70
2016,03,18,07,44,8.70
2016,03,18,07,45,8.70
2016,03,18,07,46,8.70
2016,03,18,07,47,8.70
2016,03,18,07,48,8.70
2016,03,18,07,49,8.80
2016,03,18,07,50,8.80
2016,03,18,07,51,8.90
2016,03,18,07,52,8.90
2016,03,18,07,53,9.00
2016,03,18,07,54,9.00
2016,03,18,07,55,9.10
2016,03,18,07,56,9.10
2016,03,18,07,57,9.20
2016,03,18,07,58,9.20
2016,03,18,07,59,9.20
2016,03,18,08,00,9.30
2016,03,18,08,01,9.30
2016,03,18,08,02,9.30
2016,03,18,08,03,9.40
2016,03,18,08,04,9.40
2016,03,18,08,05,9.50
2016,03,18,08,06,9.50
2016,03,18,08,07,9.60
2016,03,18,08,08,9.60
2016,03,18,08,09,9.60
2016,03,18,08,10,9.60
2016,03,18,08,11,9.60
2016,03,18,08,12,9.60
2016,03,18,08,13,9.60
2016,03,18,08,14,9.60
2016,03,18,08,15,9.60
2016,03,18,08,16,9.60
2016,03,18,08,17,9.60
2016,03,18,08,18,9.60
2016,03,18,08,19,9.60
2016,03,18,08,20,9.60
2016,03,18,08,21,9.60
2016,03,18,08,22,9.60
2016,03,18,08,23,9.50
2016,03,18,08,24,9.50
2016,03,18,08,25,9.50
2016,03,18,08,26,9.40
2016,03,18,08,27,9.40
2016,03,18,08,28,9.40
2016,03,18,08,29,9.40
2016,03,18,08,30,9.40
2016,03,18,08,31,9.40
2016,03,18,08,32,9.40
2016,03,18,08,33,9.40
2016,03,18,08,34,9.40
2016,03,18,08,35,9.40
2016,03,18,08,36,9.40
2016,03,18,08,37,9.40
2016,03,18,08,38,9.40
2016,03,18,08,39,9.50
2016,03,18,08,40,9.50
2016,03,18,08,41,9.50
2016,03,18,08,42,9.50
2016,03,18,08,43,9.50
2016,03,18,08,44,9.50
2016,03,18,08,45,9.50
2016,03,18,08,46,9.50
2016,03,18,08,48,9.60
2016,03,18,08,49,9.60
2016,03,18,08,51,9.60
2016,03,18,08,52,9.60
2016,03,18,08,53,9.70
2016,03,18,08,54,9.70
2016,03,18,08,56,9.70
2016,03,18,08,57,9.70
2016,03,18,08,58,9.70
2016,03,18,08,59,9.70
2016,03,18,09,01,9.70
2016,03,18,09,02,9.70
2016,03,18,09,03,9.70
2016,03,18,09,04,9.70
2016,03,18,09,06,9.70
2016,03,18,09,07,9.70
2016,03,18,09,08,9.70
2016,03,18,09,09,9.60
2016,03,18,09,11,9.60
2016,03,18,09,12,9.60
2016,03,18,09,13,9.60
2016,03,18,09,14,9.60
2016,03,18,09,16,9.60
2016,03,18,09,17,9.60
2016,03,18,09,18,9.60
2016,03,18,09,19,9.60
2016,03,18,09,21,9.70
2016,03,18,09,22,9.70
2016,03,18,09,23,9.70
2016,03,18,09,24,9.70
2016,03,18,09,26,9.70
2016,03,18,09,27,9.70
2016,03,18,09,28,9.70
2016,03,18,09,29,9.70
2016,03,18,09,31,9.70
2016,03,18,09,32,9.70
2016,03,18,09,33,9.80
2016,03,18,09,34,9.80
2016,03,18,09,36,9.80
2016,03,18,09,37,9.80
2016,03,18,09,38,9.80
2016,03,18,09,39,9.90
2016,03,18,09,41,9.90
2016,03,18,09,42,9.90
2016,03,18,09,43,9.90
2016,03,18,09,44,9.90
2016,03,18,09,46,10.10
2016,03,18,09,47,10.10
2016,03,18,09,48,10.10
2016,03,18,09,49,10.10
2016,03,18,09,51,10.10
2016,03,18,09,52,10.20
2016,03,18,09,53,10.20
2016,03,18,09,54,10.20
2016,03,18,09,55,10.20
2016,03,18,09,56,10.30
2016,03,18,09,57,10.30
2016,03,18,09,58,10.30
2016,03,18,09,59,10.30
2016,03,18,10,00,10.30
2016,03,18,10,01,10.30
2016,03,18,10,02,10.30
2016,03,18,10,03,10.30
2016,03,18,10,04,10.30
2016,03,18,10,05,10.30
2016,03,18,10,06,10.30
2016,03,18,10,07,10.30
2016,03,18,10,08,10.30
2016,03,18,10,09,10.30
2016,03,18,10,10,10.30
2016,03,18,10,11,10.40
2016,03,18,10,12,10.40
2016,03,18,10,13,10.40
2016,03,18,10,14,10.40
2016,03,18,10,15,10.40
2016,03,18,10,16,10.40
2016,03,18,10,17,10.40
2016,03,18,10,18,10.40
2016,03,18,10,19,10.40
2016,03,18,10,20,10.40
2016,03,18,10,21,10.40
2016,03,18,10,22,10.40
2016,03,18,10,23,10.40
2016,03,18,10,24,10.40
2016,03,18,10,25,10.40
2016,03,18,10,26,10.40
2016,03,18,10,27,10.40
2016,03,18,10,28,10.60
2016,03,18,10,29,10.60
2016,03,18,10,30,10.60
2016,03,18,10,31,10.60
2016,03,18,10,32,10.60
2016,03,18,10,33,10.60
2016,03,18,10,34,10.60
2016,03,18,10,35,10.70
2016,03,18,10,36,10.70
2016,03,18,10,37,10.80
2016,03,18,10,38,10.90
2016,03,18,10,39,10.90
2016,03,18,10,40,10.90
2016,03,18,10,41,10.90
2016,03,18,10,42,11.10
2016,03,18,10,43,11.10
2016,03,18,10,44,11.20
2016,03,18,10,45,11.20
2016,03,18,10,46,11.30
2016,03,18,10,47,11.40
2016,03,18,10,48,11.40
2016,03,18,10,49,11.40
2016,03,18,10,50,11.40
2016,03,18,10,51,11.40
2016,03,18,10,52,11.40
2016,03,18,10,53,11.60
2016,03,18,10,54,11.60
2016,03,18,10,55,11.60
2016,03,18,10,56,11.60
2016,03,18,10,57,11.60
2016,03,18,10,58,11.60
2016,03,18,10,59,11.60
2016,03,18,11,00,11.60
2016,03,18,11,01,11.70
2016,03,18,11,02,11.70
2016,03,18,11,03,11.70
2016,03,18,11,04,11.80
2016,03,18,11,05,11.80
2016,03,18,11,06,11.80
2016,03,18,11,07,11.80
2016,03,18,11,08,11.80
2016,03,18,11,09,11.80
2016,03,18,11,10,11.80
2016,03,18,11,11,11.80
2016,03,18,11,12,11.80
2016,03,18,11,13,11.80
2016,03,18,11,14,11.80
2016,03,18,11,15,11.80
2016,03,18,11,16,11.80
2016,03,18,11,17,11.80
2016,03,18,11,18,11.80
2016,03,18,11,19,11.80
2016,03,18,11,20,11.80
2016,03,18,11,21,11.80
2016,03,18,11,22,11.80
2016,03,18,11,23,11.90
2016,03,18,11,24,11.90
2016,03,18,11,25,11.90
2016,03,18,11,26,11.90
2016,03,18,11,27,11.90
2016,03,18,11,29,11.90
2016,03,18,11,31,12.00
2016,03,18,11,32,12.00
2016,03,18,11,33,12.00
2016,03,18,11,34,12.00
2016,03,18,11,36,12.10
2016,03,18,11,37,12.10
2016,03,18,11,38,12.10
2016,03,18,11,39,12.10
2016,03,18,11,41,12.20
2016,03,18,11,42,12.20
2016,03,18,11,43,12.20
2016,03,18,11,44,12.30
2016,03,18,11,46,12.30
2016,03,18,11,47,12.30
2016,03,18,11,48,12.30
2016,03,18,11,49,12.30
2016,03,18,11,51,12.40
2016,03,18,11,52,12.40
2016,03,18,11,53,12.40
2016,03,18,11,54,12.50
2016,03,18,11,56,12.50
2016,03,18,11,57,12.60
2016,03,18,11,58,12.60
2016,03,18,11,59,12.60
2016,03,18,12,01,12.70
2016,03,18,12,02,12.80
2016,03,18,12,03,12.80
2016,03,18,12,04,12.80
2016,03,18,12,06,12.80
2016,03,18,12,07,12.90
2016,03,18,12,08,12.90
2016,03,18,12,09,13.00
2016,03,18,12,11,13.00
2016,03,18,12,12,13.10
2016,03,18,12,13,13.00
2016,03,18,12,14,13.00
2016,03,18,12,16,13.00
2016,03,18,12,17,13.00
2016,03,18,12,18,13.00
2016,03,18,12,19,13.00
2016,03,18,12,21,13.00
2016,03,18,12,22,13.00
2016,03,18,12,23,13.00
2016,03,18,12,24,13.00
2016,03,18,12,26,13.10
2016,03,18,12,27,13.10
2016,03,18,12,28,13.20
2016,03,18,12,29,13.20
2016,03,18,12,31,13.30
2016,03,18,12,32,13.30
2016,03,18,12,33,13.30
2016,03,18,12,34,13.30
2016,03,18,12,36,13.30
2016,03,18,12,37,13.30
2016,03,18,12,38,13.30
2016,03,18,12,39,13.30
2016,03,18,12,41,13.30
2016,03,18,12,42,13.30
2016,03,18,12,43,13.30
2016,03,18,12,44,13.30
2016,03,18,12,45,13.30
2016,03,18,12,46,13.40
2016,03,18,12,47,13.40
2016,03,18,12,48,13.40
2016,03,18,12,49,13.40
2016,03,18,12,50,13.40
2016,03,18,12,51,13.40
2016,03,18,12,52,13.40
2016,03,18,12,53,13.50
2016,03,18,12,54,13.50
2016,03,18,12,55,13.50
2016,03,18,12,56,13.50
2016,03,18,12,57,13.50
2016,03,18,12,58,13.50
2016,03,18,12,59,13.50
2016,03,18,13,00,13.50
2016,03,18,13,01,13.40
2016,03,18,13,02,13.40
2016,03,18,13,03,13.30
2016,03,18,13,04,13.30
2016,03,18,13,05,13.30
2016,03,18,13,06,13.30
2016,03,18,13,07,13.30
2016,03,18,13,08,13.30
2016,03,18,13,09,13.30
2016,03,18,13,10,13.30
2016,03,18,13,11,13.40
2016,03,18,13,12,13.40
2016,03,18,13,13,13.40
2016,03,18,13,14,13.30
2016,03,18,13,15,13.30
2016,03,18,13,16,13.30
2016,03,18,13,17,13.30
2016,03,18,13,18,13.30
2016,03,18,13,19,13.30
2016,03,18,13,20,13.30
2016,03,18,13,21,13.30
2016,03,18,13,22,13.30
2016,03,18,13,23,13.30
2016,03,18,13,24,13.40
2016,03,18,13,25,13.40
2016,03,18,13,26,13.50
2016,03,18,13,27,13.50
2016,03,18,13,28,13.50
2016,03,18,13,29,13.60
2016,03,18,13,30,13.60
2016,03,18,13,31,13.60
2016,03,18,13,32,13.60
2016,03,18,13,33,13.60
2016,03,18,13,34,13.60
2016,03,18,13,35,13.60
2016,03,18,13,36,13.60
2016,03,18,13,37,13.60
2016,03,18,13,38,13.60
2016,03,18,13,39,13.60
2016,03,18,13,40,13.60
2016,03,18,13,41,13.60
2016,03,18,13,42,13.60
2016,03,18,13,43,13.60
2016,03,18,13,44,13.70
2016,03,18,13,45,13.70
2016,03,18,13,46,13.70
2016,03,18,13,47,13.70
2016,03,18,13,48,13.60
2016,03,18,13,49,13.60
2016,03,18,13,50,13.50
2016,03,18,13,51,13.50
2016,03,18,13,52,13.40
2016,03,18,13,53,13.40
2016,03,18,13,54,13.40
2016,03,18,13,55,13.40
2016,03,18,13,56,13.40
2016,03,18,13,57,13.30
2016,03,18,13,58,13.30
2016,03,18,13,59,13.30
2016,03,18,14,00,13.30
2016,03,18,14,01,13.30
2016,03,18,14,03,13.20
2016,03,18,14,04,13.20
2016,03,18,14,06,13.10
2016,03,18,14,07,13.20
2016,03,18,14,08,13.20
2016,03,18,14,09,13.20
2016,03,18,14,11,13.30
2016,03,18,14,12,13.30
2016,03,18,14,13,13.30
2016,03,18,14,14,13.30
2016,03,18,14,16,13.40
2016,03,18,14,17,13.40
2016,03,18,14,18,13.50
2016,03,18,14,19,13.50
2016,03,18,14,21,13.60
2016,03,18,14,22,13.60
2016,03,18,14,23,13.60
2016,03,18,14,24,13.70
2016,03,18,14,26,13.70
2016,03,18,14,27,13.70
2016,03,18,14,28,13.70
2016,03,18,14,29,13.70
2016,03,18,14,31,13.70
2016,03,18,14,32,13.70
2016,03,18,14,33,13.70
2016,03,18,14,34,13.70
2016,03,18,14,36,13.60
2016,03,18,14,37,13.50
2016,03,18,14,38,13.50
2016,03,18,14,39,13.40
2016,03,18,14,41,13.40
2016,03,18,14,42,13.40
2016,03,18,14,43,13.30
2016,03,18,14,44,13.30
2016,03,18,14,46,13.30
2016,03,18,14,47,13.30
2016,03,18,14,48,13.30
2016,03,18,14,49,13.30
2016,03,18,14,51,13.20
2016,03,18,14,52,13.20
2016,03,18,14,53,13.20
2016,03,18,14,54,13.10
2016,03,18,14,56,13.20
2016,03,18,14,57,13.20
2016,03,18,14,58,13.20
2016,03,18,14,59,13.20
2016,03,18,15,01,13.20
2016,03,18,15,02,13.20
2016,03,18,15,03,13.20
2016,03,18,15,04,13.20
2016,03,18,15,06,13.20
2016,03,18,15,07,13.20
2016,03,18,15,08,13.30
2016,03,18,15,09,13.20
2016,03,18,15,11,13.20
2016,03,18,15,12,13.10
2016,03,18,15,13,13.10
2016,03,18,15,14,13.00
2016,03,18,15,15,13.00
2016,03,18,15,16,13.00
2016,03,18,15,17,13.00
2016,03,18,15,18,12.90
2016,03,18,15,19,12.90
2016,03,18,15,21,12.80
2016,03,18,15,22,12.80
2016,03,18,15,23,12.80
2016,03,18,15,24,12.80
2016,03,18,15,25,12.80
2016,03,18,15,26,12.70
2016,03,18,15,27,12.70
2016,03,18,15,28,12.70
2016,03,18,15,29,12.80
2016,03,18,15,31,12.70
2016,03,18,15,32,12.70
2016,03,18,15,33,12.70
2016,03,18,15,34,12.70
2016,03,18,15,35,12.70
2016,03,18,15,36,12.70
2016,03,18,15,37,12.60
2016,03,18,15,38,12.60
2016,03,18,15,39,12.60
2016,03,18,15,40,12.50
2016,03,18,15,41,12.50
2016,03,18,15,42,12.50
2016,03,18,15,43,12.50
2016,03,18,15,44,12.50
2016,03,18,15,45,12.50
2016,03,18,15,46,12.50
2016,03,18,15,47,12.40
2016,03,18,15,48,12.40
2016,03,18,15,49,12.30
2016,03,18,15,50,12.30
2016,03,18,15,51,12.30
2016,03,18,15,52,12.30
2016,03,18,15,53,12.30
2016,03,18,15,54,12.30
2016,03,18,15,55,12.30
2016,03,18,15,56,12.30
2016,03,18,15,57,12.30
2016,03,18,15,58,12.30
2016,03,18,15,59,12.30
2016,03,18,16,00,12.30
2016,03,18,16,01,12.30
2016,03,18,16,02,12.30
2016,03,18,16,03,12.20
2016,03,18,16,04,12.20
2016,03,18,16,05,12.20
2016,03,18,16,06,12.20
2016,03,18,16,07,12.20
2016,03,18,16,08,12.20
2016,03,18,16,09,12.20
2016,03,18,16,10,12.10
2016,03,18,16,11,12.10
2016,03,18,16,12,12.10
2016,03,18,16,13,12.10
2016,03,18,16,14,12.20
2016,03,18,16,15,12.10
2016,03,18,16,16,12.10
2016,03,18,16,17,12.10
2016,03,18,16,18,12.10
2016,03,18,16,19,12.10
2016,03,18,16,20,12.10
2016,03,18,16,21,12.10
2016,03,18,16,22,12.00
2016,03,18,16,23,12.00
2016,03,18,16,24,11.90
2016,03,18,16,25,11.90
2016,03,18,16,26,11.90
2016,03,18,16,27,11.90
2016,03,18,16,28,11.80
2016,03,18,16,29,11.80
2016,03,18,16,30,11.80
2016,03,18,16,31,11.80
2016,03,18,16,32,11.80
2016,03,18,16,33,11.70
2016,03,18,16,34,11.70
2016,03,18,16,35,11.70
2016,03,18,16,36,11.70
2016,03,18,16,37,11.70
2016,03,18,16,38,11.60
2016,03,18,16,39,11.60
2016,03,18,16,40,11.60
2016,03,18,16,41,11.60
2016,03,18,16,42,11.60
2016,03,18,16,43,11.60
2016,03,18,16,44,11.60
2016,03,18,16,45,11.60
2016,03,18,16,47,11.70
2016,03,18,16,48,11.80
2016,03,18,16,49,11.80
2016,03,18,16,51,11.80
2016,03,18,16,52,11.80
2016,03,18,16,53,11.80
2016,03,18,16,54,11.80
2016,03,18,16,56,11.80
2016,03,18,16,57,11.80
2016,03,18,16,58,11.80
2016,03,18,16,59,11.80
2016,03,18,17,01,11.80
2016,03,18,17,02,11.80
2016,03,18,17,03,11.80
2016,03,18,17,04,11.80
2016,03,18,17,06,11.80
2016,03,18,17,07,11.80
2016,03,18,17,08,11.90
2016,03,18,17,09,11.90
2016,03,18,17,11,11.90
2016,03,18,17,12,11.90
2016,03,18,17,13,11.90
2016,03,18,17,14,11.90
2016,03,18,17,16,11.90
2016,03,18,17,17,11.90
2016,03,18,17,18,11.90
2016,03,18,17,19,11.90
2016,03,18,17,21,11.90
2016,03,18,17,22,11.90
2016,03,18,17,23,11.80
2016,03,18,17,24,11.80
2016,03,18,17,26,11.80
2016,03,18,17,27,11.80
2016,03,18,17,28,11.70
2016,03,18,17,29,11.60
2016,03,18,17,31,11.40
2016,03,18,17,32,11.40
2016,03,18,17,33,11.30
2016,03,18,17,34,11.20
2016,03,18,17,36,11.10
2016,03,18,17,37,11.10
2016,03,18,17,38,11.10
2016,03,18,17,39,11.10
2016,03,18,17,41,10.90
2016,03,18,17,42,10.90
2016,03,18,17,43,10.90
2016,03,18,17,44,10.80
2016,03,18,17,46,10.80
2016,03,18,17,47,10.80
2016,03,18,17,48,10.80
2016,03,18,17,49,10.70
2016,03,18,17,51,10.70
2016,03,18,17,52,10.70
2016,03,18,17,53,10.80
2016,03,18,17,54,10.80
2016,03,18,17,55,10.80
2016,03,18,17,56,10.80
2016,03,18,17,57,10.80
2016,03,18,17,58,10.90
2016,03,18,17,59,10.90
2016,03,18,18,01,10.90
2016,03,18,18,02,10.90
2016,03,18,18,03,11.10
2016,03,18,18,04,11.10
2016,03,18,18,06,11.10
2016,03,18,18,07,11.10
2016,03,18,18,08,11.10
2016,03,18,18,09,11.10
2016,03,18,18,10,11.10
2016,03,18,18,11,11.10
2016,03,18,18,12,11.10
2016,03,18,18,13,11.10
2016,03,18,18,14,11.10
2016,03,18,18,15,11.10
2016,03,18,18,16,11.10
2016,03,18,18,17,11.10
2016,03,18,18,18,11.10
2016,03,18,18,19,11.10
2016,03,18,18,20,11.10
2016,03,18,18,21,11.10
2016,03,18,18,22,11.10
2016,03,18,18,23,11.10
2016,03,18,18,24,11.10
2016,03,18,18,25,11.10
2016,03,18,18,26,11.10
2016,03,18,18,27,11.10
2016,03,18,18,28,11.10
2016,03,18,18,29,11.10
2016,03,18,18,30,11.10
2016,03,18,18,31,11.10
2016,03,18,18,32,10.90
2016,03,18,18,33,10.90
2016,03,18,18,34,10.90
2016,03,18,18,35,10.90
2016,03,18,18,36,10.90
2016,03,18,18,37,10.90
2016,03,18,18,38,10.90
2016,03,18,18,39,10.90
2016,03,18,18,40,10.90
2016,03,18,18,41,10.90
2016,03,18,18,42,10.90
2016,03,18,18,43,10.80
2016,03,18,18,44,10.80
2016,03,18,18,45,10.80
2016,03,18,18,46,10.70
2016,03,18,18,47,10.70
2016,03,18,18,48,10.60
2016,03,18,18,49,10.60
2016,03,18,18,50,10.60
2016,03,18,18,51,10.60
2016,03,18,18,52,10.40
2016,03,18,18,53,10.40
2016,03,18,18,54,10.40
2016,03,18,18,55,10.40
2016,03,18,18,56,10.40
2016,03,18,18,57,10.40
2016,03,18,18,58,10.30
2016,03,18,18,59,10.30
2016,03,18,19,00,10.30
2016,03,18,19,01,10.30
2016,03,18,19,02,10.30
2016,03,18,19,03,10.20
2016,03,18,19,04,10.20
2016,03,18,19,05,10.20
2016,03,18,19,06,10.20
2016,03,18,19,07,10.20
2016,03,18,19,08,10.20
2016,03,18,19,09,10.20
2016,03,18,19,10,10.20
2016,03,18,19,11,10.20
2016,03,18,19,12,10.20
2016,03,18,19,13,10.20
2016,03,18,19,14,10.10
2016,03,18,19,15,10.10
2016,03,18,19,16,10.10
2016,03,18,19,17,10.10
2016,03,18,19,18,10.10
2016,03,18,19,19,10.10
2016,03,18,19,20,10.10
2016,03,18,19,21,10.10
2016,03,18,19,22,10.10
2016,03,18,19,23,10.10
2016,03,18,19,24,10.10
2016,03,18,19,25,10.10
2016,03,18,19,26,10.10
2016,03,18,19,27,10.10
2016,03,18,19,28,10.10
2016,03,18,19,29,10.10
2016,03,18,19,30,10.10
2016,03,18,19,31,10.10
2016,03,18,19,33,10.10
2016,03,18,19,34,10.10
2016,03,18,19,36,10.10
2016,03,18,19,37,10.10
2016,03,18,19,38,10.10
2016,03,18,19,39,10.10
2016,03,18,19,41,10.10
2016,03,18,19,42,10.10
2016,03,18,19,43,10.10
2016,03,18,19,44,9.90
2016,03,18,19,46,9.90
2016,03,18,19,47,9.90
2016,03,18,19,48,9.90
2016,03,18,19,49,9.90
2016,03,18,19,51,9.90
2016,03,18,19,52,9.90
2016,03,18,19,53,9.90
2016,03,18,19,54,9.90
2016,03,18,19,56,9.90
2016,03,18,19,57,9.90
2016,03,18,19,58,9.90
2016,03,18,19,59,9.90
2016,03,18,20,01,9.80
2016,03,18,20,02,9.80
2016,03,18,20,03,9.80
2016,03,18,20,04,9.80
2016,03,18,20,06,9.80
2016,03,18,20,07,9.80
2016,03,18,20,08,9.80
2016,03,18,20,09,9.80
2016,03,18,20,11,9.80
2016,03,18,20,12,9.80
2016,03,18,20,13,9.80
2016,03,18,20,14,9.80
2016,03,18,20,16,9.80
2016,03,18,20,17,9.80
2016,03,18,20,18,9.80
2016,03,18,20,19,9.80
2016,03,18,20,21,9.80
2016,03,18,20,22,9.80
2016,03,18,20,23,9.80
2016,03,18,20,24,9.90
2016,03,18,20,26,9.90
2016,03,18,20,27,9.90
2016,03,18,20,28,9.90
2016,03,18,20,29,9.90
2016,03,18,20,31,9.90
2016,03,18,20,32,9.80
2016,03,18,20,33,9.80
2016,03,18,20,34,9.80
2016,03,18,20,36,9.80
2016,03,18,20,37,9.80
2016,03,18,20,38,9.80
2016,03,18,20,39,9.80
2016,03,18,20,41,9.70
2016,03,18,20,42,9.70
2016,03,18,20,43,9.70
2016,03,18,20,44,9.70
2016,03,18,20,46,9.70
2016,03,18,20,47,9.70
2016,03,18,20,48,9.70
2016,03,18,20,49,9.70
2016,03,18,20,51,9.70
2016,03,18,20,52,9.70
2016,03,18,20,53,9.70
2016,03,18,20,54,9.70
2016,03,18,20,55,9.70
2016,03,18,20,56,9.70
2016,03,18,20,57,9.70
2016,03,18,20,58,9.70
2016,03,18,20,59,9.70
2016,03,18,21,00,9.70
2016,03,18,21,01,9.70
2016,03,18,21,02,9.70